| time (UTC) | temp C | wind direction | speed KPH | gust KPH | rain 1hr cm | rain 24hr cm | rain mn cm | humidity % | barometer mb |
| 20260507181906 | 15 | 35 | 8.0 | 12.9 | 0.00 | 0.00 | 0.00 | 74 | 1013.7 |
| 20260507181407 | 15 | 21 | 8.0 | 16.1 | 0.00 | 0.00 | 0.00 | 74 | 1013.7 |
| 20260507180406 | 16 | 43 | 9.7 | 16.1 | 0.00 | 0.00 | 0.00 | 72 | 1013.6 |
| 20260507173906 | 18 | 46 | 8.0 | 12.9 | 0.00 | 0.00 | 0.00 | 62 | 1013.3 |
| 20260507171907 | 20 | 264 | 0.0 | 4.8 | 0.00 | 0.00 | 0.00 | 55 | 1013.1 |
| 20260507171407 | 20 | 265 | 3.2 | 4.8 | 0.00 | 0.00 | 0.00 | 54 | 1013.2 |
| 20260507170907 | 20 | 260 | 1.6 | 4.8 | 0.00 | 0.00 | 0.00 | 55 | 1013.2 |
| 20260507170406 | 20 | 252 | 6.4 | 14.5 | 0.00 | 0.00 | 0.00 | 54 | 1013.3 |
| 20260507163406 | 20 | 244 | 8.0 | 12.9 | 0.00 | 0.00 | 0.00 | 56 | 1013.3 |
| 20260507154907 | 20 | 204 | 8.0 | 16.1 | 0.00 | 0.00 | 0.00 | 55 | 1013.2 |
| 20260507154409 | 21 | 249 | 12.9 | 19.3 | 0.00 | 0.00 | 0.00 | 52 | 1013.1 |
| 20260507153907 | 21 | 229 | 8.0 | 19.3 | 0.00 | 0.00 | 0.00 | 54 | 1013.0 |
| 20260507151907 | 21 | 253 | 8.0 | 16.1 | 0.00 | 0.00 | 0.00 | 52 | 1013.2 |
| 20260507150406 | 21 | 191 | 11.3 | 19.3 | 0.00 | 0.03 | 0.00 | 52 | 1013.2 |
| 20260507144907 | 21 | 238 | 9.7 | 14.5 | 0.00 | 0.03 | 0.00 | 53 | 1013.4 |
| 20260507141907 | 20 | 230 | 9.7 | 16.1 | 0.00 | 0.05 | 0.00 | 55 | 1013.6 |
| 20260507140911 | 20 | 211 | 8.0 | 24.1 | 0.00 | 0.05 | 0.00 | 56 | 1013.6 |
| 20260507140407 | 20 | 251 | 16.1 | 22.5 | 0.00 | 0.05 | 0.00 | 54 | 1013.5 |
| 20260507134906 | 20 | 200 | 9.7 | 19.3 | 0.00 | 0.05 | 0.00 | 54 | 1013.7 |
| 20260507133906 | 21 | 243 | 9.7 | 20.9 | 0.00 | 0.08 | 0.00 | 54 | 1013.7 |
| 20260507131906 | 20 | 168 | 14.5 | 22.5 | 0.00 | 0.08 | 0.00 | 56 | 1013.9 |
| 20260507124907 | 20 | 238 | 11.3 | 19.3 | 0.00 | 0.15 | 0.00 | 58 | 1013.9 |
| 20260507123906 | 20 | 239 | 9.7 | 20.9 | 0.00 | 0.15 | 0.00 | 60 | 1013.9 |
| 20260507121406 | 20 | 173 | 16.1 | 24.1 | 0.00 | 0.20 | 0.00 | 60 | 1014.0 |
| 20260507120907 | 20 | 222 | 8.0 | 16.1 | 0.00 | 0.20 | 0.00 | 63 | 1014.0 |
| 20260507114407 | 19 | 200 | 8.0 | 14.5 | 0.00 | 0.20 | 0.00 | 64 | 1014.2 |
| 20260507113406 | 18 | 199 | 8.0 | 16.1 | 0.00 | 0.20 | 0.00 | 65 | 1014.3 |
| 20260507111407 | 19 | 189 | 6.4 | 11.3 | 0.00 | 0.20 | 0.00 | 66 | 1014.4 |
| 20260507110907 | 19 | 245 | 3.2 | 4.8 | 0.00 | 0.20 | 0.00 | 66 | 1014.5 |
| 20260507104906 | 18 | 188 | 3.2 | 9.7 | 0.00 | 0.20 | 0.00 | 66 | 1014.7 |
| 20260507103406 | 18 | 68 | 1.6 | 19.3 | 0.00 | 0.20 | 0.00 | 67 | 1014.8 |
| 20260507100406 | 19 | 185 | 3.2 | 14.5 | 0.00 | 0.20 | 0.00 | 67 | 1015.0 |
| 20260507094906 | 18 | 134 | 6.4 | 11.3 | 0.00 | 0.20 | 0.00 | 68 | 1015.0 |
| 20260507093906 | 18 | 147 | 8.0 | 11.3 | 0.00 | 0.20 | 0.00 | 70 | 1015.0 |
| 20260507091906 | 18 | 176 | 3.2 | 4.8 | 0.00 | 0.20 | 0.00 | 72 | 1015.2 |
| 20260507084907 | 17 | 225 | 1.6 | 4.8 | 0.00 | 0.20 | 0.00 | 74 | 1015.4 |
| 20260507083906 | 16 | 197 | 1.6 | 4.8 | 0.00 | 0.20 | 0.00 | 77 | 1015.4 |
| 20260507081908 | 16 | 198 | 3.2 | 4.8 | 0.00 | 0.20 | 0.00 | 80 | 1015.3 |
| 20260507080906 | 15 | 75 | 3.2 | 4.8 | 0.00 | 0.20 | 0.00 | 80 | 1015.3 |
| 20260507080406 | 15 | 127 | 1.6 | 4.8 | 0.00 | 0.20 | 0.00 | 81 | 1015.4 |
| 20260507073406 | 15 | 223 | 3.2 | 4.8 | 0.00 | 0.23 | 0.00 | 82 | 1015.2 |
| 20260507071906 | 15 | 253 | 3.2 | 4.8 | 0.00 | 0.23 | 0.00 | 82 | 1015.2 |
| 20260507071406 | 14 | 172 | 1.6 | 4.8 | 0.00 | 0.23 | 0.00 | 81 | 1015.2 |
| 20260507070906 | 13 | 213 | 3.2 | 8.0 | 0.00 | 0.23 | 0.00 | 81 | 1015.1 |
| 20260507064906 | 13 | 232 | 3.2 | 4.8 | 0.00 | 0.53 | 0.00 | 79 | 1015.0 |
| 20260507063406 | 13 | 238 | 1.6 | 8.0 | 0.00 | 0.74 | 0.00 | 79 | 1014.9 |
| 20260507061906 | 12 | 33 | 0.0 | 1.6 | 0.00 | 0.81 | 0.00 | 76 | 1014.8 |
| 20260507060905 | 12 | 33 | 1.6 | 3.2 | 0.00 | 0.86 | 0.00 | 73 | 1014.7 |
| 20260507060406 | 12 | 33 | 1.6 | 9.7 | 0.00 | 0.89 | 0.00 | 69 | 1014.7 |
| 20260507054906 | 12 | 33 | 0.0 | 0.0 | 0.00 | 1.17 | 0.00 | 64 | 1014.6 |
| 20260507054407 | 12 | 33 | 0.0 | 1.6 | 0.00 | 1.17 | 0.00 | 62 | 1014.5 |
| 20260507051406 | 11 | 33 | 0.0 | 1.6 | 0.00 | 1.32 | 0.00 | 61 | 1014.4 |
| 20260507050905 | 11 | 33 | 0.0 | 1.6 | 0.00 | 1.32 | 0.00 | 61 | 1014.3 |
| 20260507050406 | 11 | 33 | 0.0 | 3.2 | 0.00 | 1.32 | 0.00 | 60 | 1014.2 |
| 20260507044406 | 11 | 33 | 1.6 | 3.2 | 0.00 | 1.35 | 0.00 | 62 | 1014.0 |
| 20260507040406 | 10 | 33 | 3.2 | 9.7 | 0.00 | 1.40 | 0.00 | 58 | 1013.9 |
| 20260507034406 | 10 | 37 | 0.0 | 3.2 | 0.00 | 1.40 | 0.00 | 58 | 1013.9 |
| 20260507033905 | 10 | 37 | 1.6 | 3.2 | 0.00 | 1.42 | 0.00 | 59 | 1013.8 |
| 20260507033406 | 10 | 37 | 3.2 | 4.8 | 0.00 | 1.42 | 0.00 | 58 | 1013.7 |
| 20260507031406 | 11 | 37 | 3.2 | 8.0 | 0.00 | 1.70 | 0.00 | 59 | 1013.5 |
| 20260507030906 | 11 | 310 | 3.2 | 4.8 | 0.00 | 1.75 | 0.00 | 59 | 1013.6 |
| 20260507023905 | 12 | 252 | 0.0 | 0.0 | 0.00 | 2.24 | 0.00 | 61 | 1013.6 |
| 20260507021905 | 12 | 252 | 1.6 | 3.2 | 0.00 | 2.24 | 0.00 | 62 | 1013.8 |
| 20260507021405 | 12 | 252 | 0.0 | 1.6 | 0.00 | 2.24 | 0.00 | 63 | 1013.8 |
| 20260507020906 | 12 | 252 | 0.0 | 0.0 | 0.00 | 2.26 | 0.00 | 63 | 1013.8 |
| 20260507020405 | 12 | 252 | 0.0 | 1.6 | 0.00 | 2.29 | 0.00 | 63 | 1013.8 |
| 20260507014406 | 12 | 252 | 0.0 | 0.0 | 0.00 | 2.74 | 0.00 | 64 | 1013.8 |
| 20260507013906 | 12 | 252 | 0.0 | 0.0 | 0.00 | 2.87 | 0.00 | 64 | 1013.8 |
| 20260507011906 | 12 | 252 | 1.6 | 3.2 | 0.00 | 3.07 | 0.00 | 63 | 1013.9 |
| 20260507003405 | 12 | 252 | 1.6 | 4.8 | 0.00 | 3.23 | 0.00 | 67 | 1013.8 |
| 20260507001406 | 12 | 82 | 3.2 | 4.8 | 0.00 | 3.40 | 0.00 | 73 | 1013.8 |
| 20260507000905 | 12 | 82 | 1.6 | 3.2 | 0.00 | 3.84 | 0.00 | 74 | 1013.8 |
| 20260507000406 | 12 | 82 | 1.6 | 11.3 | 0.00 | 4.50 | 0.00 | 74 | 1013.8 |
| 20260506233906 | 13 | 29 | 0.0 | 3.2 | 0.00 | 5.94 | 0.00 | 79 | 1013.9 |
| 20260506231906 | 13 | 255 | 3.2 | 16.1 | 0.00 | 6.25 | 0.00 | 80 | 1013.7 |
| 20260506231406 | 13 | 77 | 14.5 | 19.3 | 0.00 | 6.27 | 0.00 | 80 | 1013.8 |
| 20260506230405 | 13 | 87 | 8.0 | 25.7 | 0.00 | 6.30 | 0.00 | 78 | 1013.8 |
| 20260506224406 | 13 | 64 | 0.0 | 1.6 | 0.00 | 6.30 | 0.00 | 77 | 1013.7 |
| 20260506223905 | 13 | 64 | 1.6 | 4.8 | 0.00 | 6.30 | 0.00 | 77 | 1013.7 |
| 20260506223405 | 13 | 62 | 4.8 | 11.3 | 0.00 | 6.30 | 0.00 | 78 | 1013.7 |
| 20260506221906 | 13 | 58 | 3.2 | 12.9 | 0.00 | 6.30 | 0.00 | 77 | 1013.6 |
| 20260506220906 | 13 | 137 | 9.7 | 19.3 | 0.00 | 6.30 | 0.00 | 75 | 1013.8 |
| 20260506220406 | 13 | 137 | 9.7 | 16.1 | 0.00 | 6.30 | 0.00 | 74 | 1013.7 |
| 20260506214905 | 14 | 211 | 3.2 | 11.3 | 0.00 | 6.30 | 6.30 | 65 | 1013.6 |
| 20260506214408 | 14 | 34 | 1.6 | 9.7 | 0.00 | 6.30 | 6.30 | 65 | 1013.5 |
| 20260506211907 | 13 | 34 | 1.6 | 3.2 | 0.00 | 6.30 | 6.30 | 69 | 1013.3 |
| 20260506210905 | 13 | 34 | 1.6 | 4.8 | 0.00 | 6.30 | 6.30 | 69 | 1013.3 |
| 20260506210405 | 13 | 34 | 6.4 | 9.7 | 0.00 | 6.30 | 6.30 | 67 | 1013.3 |
| 20260506204905 | 13 | 34 | 3.2 | 4.8 | 0.00 | 6.30 | 6.30 | 69 | 1013.2 |
| 20260506204405 | 13 | 34 | 3.2 | 4.8 | 0.00 | 6.30 | 6.30 | 69 | 1013.2 |
| 20260506203905 | 13 | 34 | 1.6 | 4.8 | 0.00 | 6.30 | 6.30 | 70 | 1013.2 |
| 20260506201906 | 13 | 34 | 3.2 | 8.0 | 0.00 | 6.93 | 6.30 | 73 | 1013.1 |
| 20260506194405 | 13 | 34 | 4.8 | 8.0 | 0.00 | 7.26 | 6.30 | 76 | 1012.7 |
| 20260506193907 | 13 | 34 | 1.6 | 4.8 | 0.00 | 7.26 | 6.30 | 77 | 1012.6 |
| 20260506191907 | 13 | 34 | 4.8 | 12.9 | 0.00 | 7.26 | 6.30 | 78 | 1012.3 |
| 20260506190912 | 14 | 34 | 6.4 | 11.3 | 0.00 | 7.26 | 6.30 | 79 | 1012.1 |
| 20260506190407 | 14 | 34 | 4.8 | 9.7 | 0.00 | 7.29 | 6.30 | 79 | 1012.1 |
| 20260506184407 | 14 | 34 | 3.2 | 11.3 | 0.00 | 7.37 | 6.30 | 81 | 1011.9 |
| 20260506183907 | 15 | 34 | 4.8 | 12.9 | 0.00 | 7.37 | 6.30 | 82 | 1011.9 |